Location: Kings Park
(40.8862°N, 73.2573°W)
Time: 06:10:23
(UTC+00:00)

USA 306 - Pass Details

Date: 29 October 2020
Orbit: 569 x 577 km, 54.0° (Epoch: 22 November)

Event Time Altitude Azimuth Distance (km) Brightness Sun altitude
Rises 22:44:13 0° 314° (NW) 2,785 7.0 -10.4°
Reaches altitude 10° 22:46:41 10° 325° (NW) 1,884 5.9 -10.9°
Maximum altitude 22:50:31 31° 28° (NNE) 1,024 3.9 -11.6°
Enters shadow 22:52:56 18° 79° (E) 1,432 4.3 -12.0°
